Location: Alta
(39.2070°N, 120.8111°W)
Time: 03:59:15
(UTC+00:00)

LilacSat-2 - Visible Passes

Search period start: 29 March 2023 00:00
Search period end: 08 April 2023 00:00
Orbit: 499 x 521 km, 97.5° (Epoch: 28 March)

Date Brightness Start Highest point End Pass type
(mag) Time Alt. Az. Time Alt. Az. Time Alt. Az.
29 Mar ? 13:13:51 10° NE 13:16:29 18° E 13:19:06 10° SE visible
30 Mar ? 12:58:29 10° ENE 12:59:46 11° E 13:01:03 10° ESE visible
04 Apr ? 13:08:16 10° NE 13:10:33 16° E 13:12:50 10° SE visible
